Flag for Guatemala Weather past 2 weeks in Escuintla, Guatemala

Now
73 °F

Partly sunny.


Feels Like: 77 °F
Forecast: 67 / 98 °F
Wind: 23 mph from North

Location: Guatemala Aeropuertola Aurora

Current Time: Mar 6, 2015 at 12:32:40 PM

Latest Report: Mar 6, 2015 at 12:00 PM


Visibility: N/A

Pressure: 30.30 "Hg

Humidity: 57%

Dew point: 57 °F

Location of EscuintlaLocation

Historic Weather in Escuintla — Graph

°F

Escuintla temperature yesterday

Maximum temperature yesterday: 84 °F (at 2:00 PM)
Minimum temperature yesterday: 59 °F (at 7:00 AM)
Average temperature yesterday: 71 °F

Past Weeks' High & Low Weather Summary

 TemperatureHumidityPressure
High84 °F (Mar 5, 2:00 PM)94% (Feb 20, 3:00 AM)30.42 "Hg (Feb 20, 3:00 AM)
Low54 °F (Feb 20, 4:00 AM)32% (Feb 22, 3:00 PM)30.12 "Hg (Mar 4, 4:00 PM)
Average66 °F72%30.28 "Hg
* Reported Feb 19 11:00 AM — Mar 6 11:00 AM, Escuintla, Weather by CustomWeather, © 2015

Note: Actual official high and low records may vary slightly from our data, if they occured in-between our weather recording intervals... More about our weather records

Advertising

Escuintla weather history for previous 24 hours

 ConditionsComfort  
Time TempWeatherWind HumidityBarometerVisibility
11:00 AM
Fri, Mar 6
73 °FScattered clouds.23 mph57%30.33 "HgN/A
10:00 AM70 °FScattered clouds.21 mph60%30.33 "HgN/A
9:00 AM66 °FPassing clouds.23 mph73%30.33 "HgN/A
8:00 AM64 °FPassing clouds.18 mph78%30.33 "HgN/A
7:00 AM61 °FScattered clouds.14 mph88%30.33 "HgN/A
6:00 AM59 °FPassing clouds.14 mph94%30.30 "HgN/A
5:00 AM59 °FPassing clouds.12 mph94%30.27 "HgN/A
4:00 AM59 °FPassing clouds.16 mph94%30.27 "HgN/A
3:00 AM61 °FPassing clouds.14 mph88%30.27 "HgN/A
2:00 AM61 °FPassing clouds.18 mph94%30.27 "HgN/A
1:00 AM63 °FPassing clouds.14 mph88%30.30 "HgN/A
12:00 AM64 °FPassing clouds.14 mph83%30.30 "HgN/A
11:00 PM
Thu, Mar 5
64 °FClear.12 mph83%30.30 "Hg10 mi
10:00 PM66 °FClear.14 mph78%30.30 "Hg10 mi
9:00 PM68 °FPassing clouds.21 mph69%30.30 "HgN/A
7:00 PM73 °FPassing clouds.18 mph57%30.24 "HgN/A
6:00 PM77 °FScattered clouds.18 mph47%30.21 "HgN/A
5:00 PM81 °FScattered clouds.18 mph45%30.18 "HgN/A
4:00 PM82 °FScattered clouds.16 mph37%30.18 "HgN/A
3:00 PM82 °FPassing clouds.14 mph35%30.18 "HgN/A
2:00 PM84 °FPassing clouds.18 mph33%30.21 "HgN/A
1:00 PM82 °FPassing clouds.16 mph32%30.21 "HgN/A
12:00 PM81 °FPassing clouds.14 mph37%30.24 "HgN/A
Weather by CustomWeather, © 2015

See weather overviewHow to use our weather pages